Temp
8 9 9 9 9 9 9 9 9 9 9 9 9 9 9 9 9 8 8 8 7 7 7 7 6 6 6 6 6 6 6 6 6 6 6 6 6 6 5 5 5 5 5
8 8 8 9 9 9 9 9 9 9 9 9 9 8 8 8 8 8 8 8 7 7 7 7 6 6 6 6 6 6 6 6 6 6 6 6 5 5 5 5 5 5 5
8 8 8 8 8 8 9 9 9 8 8 8 8 8 8 8 8 8 8 8 7 7 6 6 6 6 6 6 5 5 6 5 5 5 5 5 5 5 5 5 5 5 5
7 8 8 8 8 8 8 8 8 8 8 8 8 8 8 8 8 8 7 7 7 7 6 6 6 6 6 6 6 6 5 5 5 5 5 5 5 4 4 4 4 4 4
7 7 7 8 8 8 8 8 8 8 8 7 7 7 7 7 7 7 7 7 7 7 6 6 6 6 6 6 6 6 5 5 5 5 5 5 4 4 4 4 4 4 4
7 7 7 7 7 7 7 7 7 7 7 7 7 7 7 7 7 7 7 7 7 7 6 6 6 6 6 6 6 6 6 5 5 5 5 5 5 5 4 4 4 4 4
7 7 7 7 7 7 7 7 7 7 7 7 7 6 6 7 7 7 7 7 6 6 6 6 6 6 6 6 6 6 5 5 5 5 5 5 5 5 4 4 4 4 4
6 6 6 6 6 6 6 6 6 6 6 6 6 6 6 6 6 6 6 6 6 6 6 6 6 6 6 6 6 5 5 5 5 5 5 4 4 4 4 4 4 4 4
6 6 6 6 6 6 6 6 6 6 6 6 6 6 6 6 6 6 6 6 6 6 6 6 5 6 6 6 5 5 5 5 5 4 4 4 4 3 3 3 3 3 3
6 6 6 5 5 5 5 5 5 5 5 5 5 5 6 6 6 6 6 6 6 6 6 6 5 5 5 6 5 5 5 5 4 4 4 4 4 4 3 3 3 3 3
5 5 5 5 5 5 5 5 5 5 5 5 5 5 5 5 6 6 6 5 6 6 6 5 5 5 5 5 5 5 5 4 4 4 4 3 3 3 3 3 3 3 3
5 5 5 5 5 5 5 5 4 4 5 5 4 5 5 5 5 5 5 5 5 5 5 5 5 5 5 5 5 5 4 4 4 3 3 3 2 3 2 3 2 2 2
4 5 5 5 5 5 4 4 4 4 4 4 4 4 4 4 5 5 5 5 5 4 4 5 5 5 5 5 5 4 4 4 3 3 3 3 2 2 2 2 2 2 2
3 3 4 4 4 4 4 4 4 4 4 4 4 4 4 4 4 4 4 4 4 4 4 4 4 4 4 4 4 4 3 3 3 3 2 2 2 2 2 2 1 2 2
3 3 3 3 3 4 3 3 4 4 4 3 3 3 4 4 4 4 4 4 4 4 4 4 4 4 4 4 4 3 3 3 2 2 2 2 1 1 1 1 1 1 1
2 3 3 3 3 3 3 3 3 3 3 3 2 3 3 3 3 3 3 3 3 3 3 4 3 3 3 3 3 3 2 2 2 1 1 1 1 1 1 0 -0 -0 -0
2 3 3 2 2 2 2 3 2 2 1 1 2 2 2 2 3 3 3 3 3 3 3 3 3 3 2 2 2 2 2 2 1 1 1 0 0 -0 -0 -0 -1 -1 -1
2 3 3 2 2 3 2 2 1 1 1 1 1 1 2 2 2 2 2 3 3 3 2 3 2 2 2 2 2 1 1 1 1 1 0 0 -0 -0 -1 -1 -2 -2 -2
2 2 2 2 2 2 2 2 1 1 0 0 1 1 1 1 2 2 2 2 2 2 2 2 2 2 2 1 1 1 1 1 0 0 0 -0 -1 -1 -2 -2 -2 -3 -3
1 1 2 3 2 2 2 2 2 1 0 0 0 0 0 1 1 1 1 1 1 1 1 2 1 1 1 1 1 0 0 -0 -1 -1 -1 -1 -1 -2 -2 -2 -3 -3 -3
1 2 2 3 2 2 2 1 1 1 1 1 1 1 -0 0 0 0 1 1 1 -0 -0 0 1 1 1 0 -0 -1 -0 -1 -1 -1 -2 -2 -2 -3 -3 -3 -3 -4 -4
1 0 1 1 1 2 2 2 2 1 1 1 -0 0 1 -0 0 -0 0 0 0 -0 -0 0 -0 -1 -0 -0 0 -0 -1 -1 -1 -2 -2 -3 -3 -4 -4 -4 -4 -4 -4
-0 -0 0 1 0 1 1 1 1 1 1 1 0 0 0 0 -0 -1 -0 -0 -0 -1 -1 -0 -1 -1 -1 -1 -2 -2 -2 -2 -2 -3 -3 -3 -4 -4 -5 -5 -5 -5 -5
1 1 0 -0 -0 1 1 1 1 0 0 1 -0 0 0 -1 -0 -1 -1 -1 -1 -1 -2 -2 -3 -3 -3 -3 -2 -2 -3 -3 -3 -3 -3 -4 -5 -5 -5 -6 -6 -6 -6
0 1 1 1 0 1 0 -0 0 -1 -0 -0 -0 -0 -0 -0 -1 -1 -2 -2 -1 -1 -2 -4 -4 -3 -4 -3 -3 -4 -3 -4 -4 -4 -5 -5 -6 -6 -6 -6 -7 -7 -7
1 1 1 1 1 -0 -0 -0 -1 -1 -1 -1 1 1 -1 -0 -1 -1 -1 -1 -2 -2 -2 -3 -2 -5 -6 -5 -4 -5 -4 -4 -4 -5 -5 -6 -6 -6 -7 -7 -7 -8 -8
Height
3137 3140 3144 3146 3150 3152 3155 3157 3159 3160 3162 3164 3165 3166 3166 3166 3167 3167 3167 3166 3166 3165 3166 3165 3165 3164 3164 3163 3163 3164 3163 3161 3160 3159 3157 3156 3155 3153 3151 3149 3146 3143 3140
3135 3139 3142 3144 3147 3150 3153 3155 3158 3159 3160 3162 3164 3165 3165 3166 3166 3167 3166 3166 3166 3166 3165 3165 3165 3164 3163 3163 3163 3163 3162 3161 3160 3158 3158 3157 3155 3154 3152 3150 3148 3145 3141
3133 3137 3140 3143 3146 3149 3152 3154 3156 3157 3159 3161 3162 3163 3164 3165 3166 3166 3166 3166 3166 3166 3165 3165 3164 3164 3163 3163 3163 3162 3161 3160 3159 3159 3158 3157 3155 3153 3151 3150 3149 3147 3143
3131 3135 3138 3141 3144 3147 3150 3152 3154 3155 3157 3159 3160 3161 3162 3164 3165 3165 3165 3165 3165 3165 3164 3164 3163 3163 3163 3162 3162 3161 3160 3159 3158 3157 3157 3156 3155 3153 3151 3149 3147 3147 3146
3129 3133 3136 3139 3142 3145 3147 3150 3152 3154 3155 3157 3158 3159 3161 3162 3163 3163 3164 3164 3164 3164 3163 3163 3163 3162 3162 3161 3161 3160 3158 3158 3157 3156 3155 3155 3153 3152 3151 3150 3148 3146 3145
3127 3131 3134 3137 3139 3143 3145 3147 3149 3151 3153 3154 3156 3157 3158 3160 3161 3161 3162 3162 3162 3162 3162 3161 3162 3162 3161 3160 3159 3159 3158 3157 3156 3155 3155 3154 3154 3152 3151 3150 3148 3147 3145
3124 3127 3131 3134 3137 3140 3142 3145 3146 3148 3150 3151 3153 3155 3156 3158 3159 3160 3161 3161 3160 3160 3160 3160 3160 3161 3160 3160 3159 3158 3157 3156 3156 3155 3154 3152 3152 3152 3150 3149 3148 3146 3144
3120 3124 3128 3131 3134 3137 3140 3142 3144 3146 3147 3149 3150 3152 3154 3156 3156 3157 3158 3158 3158 3158 3158 3158 3158 3158 3159 3158 3158 3157 3156 3156 3155 3155 3153 3151 3150 3149 3148 3147 3146 3144 3143
3117 3120 3124 3127 3131 3133 3136 3139 3141 3142 3144 3146 3147 3149 3150 3151 3153 3154 3155 3156 3156 3156 3156 3156 3156 3156 3156 3156 3156 3155 3154 3155 3154 3151 3151 3149 3147 3147 3146 3145 3144 3143 3141
3112 3116 3120 3123 3126 3130 3133 3135 3137 3139 3140 3143 3144 3145 3146 3149 3149 3151 3153 3153 3153 3154 3154 3155 3155 3154 3153 3154 3154 3153 3153 3153 3152 3150 3149 3148 3148 3146 3145 3143 3142 3143 3141
3108 3112 3116 3119 3122 3126 3128 3131 3133 3135 3136 3139 3140 3141 3142 3145 3146 3148 3149 3150 3150 3151 3151 3151 3152 3152 3151 3150 3150 3151 3151 3150 3149 3148 3148 3147 3146 3145 3144 3143 3140 3138 3139
3102 3107 3112 3115 3118 3121 3123 3126 3128 3130 3132 3135 3136 3137 3139 3141 3142 3143 3144 3146 3146 3147 3147 3148 3148 3148 3148 3148 3148 3148 3147 3147 3146 3145 3144 3144 3144 3143 3143 3141 3140 3139 3137
3096 3102 3107 3110 3114 3116 3118 3120 3123 3125 3127 3129 3131 3133 3134 3136 3137 3138 3139 3141 3141 3143 3143 3143 3143 3143 3144 3145 3145 3145 3144 3143 3143 3142 3141 3141 3141 3141 3140 3139 3138 3138 3137
3092 3096 3100 3104 3106 3110 3112 3114 3117 3119 3121 3123 3125 3126 3129 3131 3132 3133 3134 3136 3135 3137 3138 3139 3139 3140 3140 3140 3140 3141 3140 3139 3139 3140 3139 3139 3138 3138 3138 3138 3136 3134 3133
3084 3088 3092 3096 3099 3102 3105 3107 3110 3112 3114 3116 3118 3121 3123 3125 3128 3128 3129 3130 3130 3131 3133 3134 3135 3136 3136 3136 3136 3136 3136 3134 3135 3135 3135 3135 3135 3134 3134 3132 3132 3130 3129
3075 3080 3084 3088 3091 3094 3097 3099 3101 3104 3106 3109 3111 3113 3115 3118 3121 3122 3123 3124 3125 3126 3126 3128 3129 3130 3131 3131 3130 3130 3132 3131 3130 3131 3130 3131 3130 3129 3128 3127 3127 3126 3124
3066 3070 3076 3079 3082 3086 3089 3091 3094 3096 3098 3100 3104 3106 3108 3108 3112 3114 3117 3118 3119 3120 3119 3123 3123 3124 3125 3125 3125 3125 3126 3126 3126 3126 3125 3125 3124 3124 3124 3123 3121 3120 3119
3054 3058 3065 3069 3073 3077 3080 3083 3086 3089 3090 3092 3095 3098 3101 3102 3104 3106 3109 3111 3112 3113 3113 3116 3116 3117 3118 3119 3121 3120 3120 3121 3121 3120 3120 3119 3118 3118 3117 3116 3116 3115 3114
3044 3047 3054 3059 3064 3068 3072 3075 3077 3079 3083 3086 3087 3089 3092 3094 3097 3099 3101 3103 3104 3105 3105 3109 3109 3110 3112 3112 3114 3114 3114 3114 3114 3113 3113 3113 3112 3111 3112 3111 3111 3111 3110
3035 3040 3045 3049 3054 3058 3062 3062 3065 3070 3074 3076 3079 3082 3084 3085 3089 3091 3092 3094 3096 3097 3097 3099 3101 3102 3104 3105 3107 3107 3108 3108 3107 3107 3107 3108 3107 3104 3104 3103 3104 3104 3104
3021 3031 3030 3036 3037 3044 3049 3050 3054 3059 3064 3067 3068 3073 3075 3078 3081 3081 3084 3085 3087 3090 3090 3091 3092 3094 3095 3097 3100 3101 3101 3101 3101 3101 3101 3101 3100 3100 3099 3097 3097 3096 3095
3013 3017 3020 3026 3028 3035 3041 3043 3046 3047 3050 3054 3057 3061 3065 3067 3071 3072 3076 3076 3079 3081 3083 3084 3086 3087 3089 3090 3089 3094 3094 3094 3095 3093 3092 3092 3091 3093 3094 3093 3090 3089 3089
3008 3011 3014 3018 3020 3023 3027 3032 3038 3039 3040 3042 3046 3050 3054 3057 3059 3060 3064 3065 3067 3069 3072 3074 3075 3079 3081 3082 3082 3084 3086 3087 3087 3086 3084 3085 3085 3086 3085 3085 3085 3083 3081
3001 3004 3006 3009 3014 3018 3022 3023 3024 3026 3029 3033 3034 3036 3040 3043 3044 3046 3052 3054 3058 3058 3060 3062 3065 3066 3069 3073 3073 3075 3077 3078 3079 3079 3078 3078 3078 3077 3077 3078 3078 3077 3075
2994 2998 3000 3004 3007 3009 3013 3014 3014 3018 3020 3022 3023 3026 3029 3030 3033 3034 3037 3040 3044 3046 3046 3045 3049 3054 3059 3063 3064 3066 3067 3069 3070 3071 3071 3071 3072 3070 3071 3070 3069 3069 3068
2988 2989 2993 2996 2997 3001 3003 3005 3005 3008 3008 3012 3012 3013 3018 3017 3020 3021 3024 3027 3028 3032 3033 3036 3041 3046 3050 3054 3056 3058 3059 3060 3060 3061 3063 3063 3064 3063 3064 3064 3063 3062 3059
Wind_Speed
23 21 21 19 19 18 17 16 14 13 11 9 8 6 4 2 1 1 2 4 3 4 3 4 3 4 5 6 7 7 8 8 8 9 10 11 12 13 14 15 15 15 16
23 22 22 20 20 18 17 16 15 13 12 10 9 7 5 4 3 1 1 2 2 2 2 3 3 3 4 5 7 7 7 8 8 9 10 11 11 12 13 14 15 14 14
24 23 22 20 19 18 17 16 15 13 12 11 10 8 6 5 4 3 2 2 2 2 2 3 3 4 4 5 7 8 8 8 9 10 11 11 10 11 11 12 14 14 14
24 23 22 21 20 19 17 16 15 14 13 12 11 9 8 7 6 5 4 3 3 3 2 2 3 4 5 7 8 9 9 9 9 10 11 12 12 11 10 11 11 13 14
26 24 23 21 21 19 18 17 16 15 14 13 12 11 10 10 9 7 6 5 4 4 3 3 4 5 6 8 9 9 9 9 9 9 11 11 11 11 11 11 11 11 12
27 25 24 23 21 20 18 17 16 16 15 14 14 13 12 12 11 9 8 7 6 6 5 5 5 6 7 7 8 10 10 9 9 10 11 13 14 13 12 12 12 12 12
28 27 26 24 22 21 19 18 17 17 16 15 15 14 14 14 12 11 11 9 9 8 8 7 7 7 8 9 9 9 9 9 9 12 12 13 14 15 14 13 12 11 11
30 29 28 26 24 22 20 18 18 18 17 16 16 16 16 15 14 14 13 12 12 11 10 10 9 9 9 10 10 10 11 10 8 12 13 13 12 12 13 13 12 10 10
31 31 30 28 26 23 20 19 20 19 18 18 17 18 18 18 16 16 16 15 14 13 13 12 11 11 11 11 11 12 11 12 10 9 11 12 11 11 11 11 12 12 10
34 34 32 30 28 25 22 20 20 21 20 20 19 18 20 19 19 18 17 16 16 15 15 15 14 14 13 13 13 12 12 12 12 12 11 13 14 13 12 11 11 12 12
35 34 33 32 30 27 24 22 21 22 21 22 21 21 21 20 20 19 19 18 18 17 17 17 17 16 15 15 14 14 13 13 13 14 14 14 14 14 13 13 11 11 12
35 35 35 34 32 30 27 25 23 23 22 24 24 23 22 21 21 22 21 20 20 19 19 19 19 19 19 17 16 15 15 15 14 15 14 14 14 13 14 14 14 14 13
36 34 35 35 35 33 30 28 27 25 25 25 26 24 25 24 24 24 25 22 23 21 21 21 21 20 20 20 19 18 17 17 16 15 15 15 15 15 15 15 16 16 16
38 34 36 37 37 35 33 31 30 30 30 29 30 27 26 27 26 26 26 25 25 23 24 24 22 23 22 20 20 19 19 19 18 18 17 16 15 16 16 17 18 18 18
42 37 37 38 38 37 36 35 33 32 32 32 31 30 28 28 28 28 28 27 27 26 25 25 24 23 23 22 22 21 20 21 19 19 17 16 16 16 16 17 18 18 19
46 45 42 41 40 39 39 38 35 32 29 30 33 31 30 29 29 30 29 29 29 27 27 25 24 24 24 23 23 22 21 22 21 19 18 17 17 18 18 19 19 19 19
53 51 49 47 42 39 38 39 36 34 31 31 33 33 32 31 31 32 31 31 29 29 30 26 26 25 25 25 24 24 23 22 22 21 20 19 19 18 19 20 20 20 20
54 54 48 44 47 45 41 43 38 36 37 34 33 35 34 34 33 32 32 32 31 30 32 27 28 26 26 26 25 25 24 24 23 22 22 21 21 20 21 21 21 21 21
50 47 53 51 47 45 42 46 41 39 42 32 35 35 35 35 35 34 33 32 31 30 32 29 28 27 27 27 26 25 25 25 24 24 24 23 22 22 22 22 22 22 22
47 52 54 51 47 49 47 49 42 39 39 35 42 35 37 37 35 36 36 34 33 32 31 30 29 28 27 27 27 26 26 26 25 25 24 23 24 24 24 24 23 23 23
41 45 44 52 45 48 56 44 47 47 38 41 40 39 37 40 37 39 38 38 36 33 32 31 29 29 26 27 25 26 28 28 27 25 24 25 26 25 25 25 25 24 25
41 38 46 40 39 52 49 52 47 41 45 47 45 44 43 44 39 42 41 40 38 34 34 32 29 27 28 26 25 29 30 30 29 26 26 27 26 25 26 26 25 26 27
33 35 38 42 33 31 34 39 51 52 42 48 49 42 45 43 45 45 45 44 40 37 35 34 30 28 28 25 31 34 31 30 29 27 28 27 27 27 28 26 27 28 29
36 32 32 32 28 35 38 45 40 42 42 50 50 53 49 55 51 49 49 47 46 42 37 37 35 35 35 34 33 31 31 33 30 28 29 28 28 28 28 28 29 30 31
32 33 31 31 31 29 32 35 49 43 46 43 36 45 47 56 55 60 54 50 53 54 54 50 45 32 30 33 34 30 33 31 30 29 29 30 28 30 30 30 30 32 32
33 33 32 32 31 30 31 36 22 23 23 27 33 32 38 39 58 58 59 60 66 63 61 46 42 32 34 34 32 34 32 31 31 31 30 31 30 31 33 31 32 33 34
Wind_Direction
188 188 189 187 190 191 193 193 192 194 197 194 192 190 196 203 222 67 73 71 71 72 50 51 49 40 31 8 357 3 357 3 6 11 6 7 6 6 6 5 7 8 7
189 190 191 191 192 195 196 197 199 199 200 204 207 203 206 217 238 250 30 35 44 59 51 52 44 22 19 354 347 341 344 346 355 358 359 359 2 3 4 3 5 6 8
192 193 194 195 197 198 201 203 205 207 211 212 214 216 218 228 247 263 282 308 338 11 14 32 28 4 355 351 336 331 335 342 347 354 347 350 355 358 1 3 2 2 5
194 197 197 198 201 202 206 209 211 212 216 218 218 220 223 229 241 252 267 285 314 333 344 349 352 337 341 345 338 336 334 340 343 350 349 345 348 347 351 356 1 359 359
199 200 200 202 205 208 210 213 216 219 221 221 222 223 225 226 233 242 253 265 282 286 284 296 310 324 339 339 336 332 337 339 338 350 350 349 342 344 344 344 349 355 358
204 205 206 205 208 211 212 217 219 224 225 223 225 226 230 232 232 236 244 250 259 268 272 278 294 309 324 331 334 334 335 336 339 347 350 351 346 348 349 344 345 347 349
208 208 209 208 209 212 216 221 225 228 230 228 229 231 234 235 237 241 245 250 253 258 265 275 287 302 313 322 329 330 328 329 337 335 344 347 347 345 346 343 347 344 347
211 211 212 211 211 217 224 229 232 233 236 236 234 235 239 238 237 241 245 249 253 259 264 271 280 292 302 309 317 322 320 321 331 333 333 338 344 344 343 342 341 341 344
216 214 213 213 216 222 228 234 235 237 238 240 240 239 242 240 241 242 245 249 254 260 264 267 276 284 290 297 305 306 313 316 320 313 320 325 330 333 333 337 334 337 335
219 219 216 216 219 226 233 237 238 240 240 245 243 244 245 245 243 246 248 251 255 259 265 272 273 275 281 291 294 298 307 310 307 305 310 312 321 325 329 333 336 336 332
224 223 221 221 223 228 234 241 244 246 243 246 246 244 247 250 250 249 250 253 256 260 263 266 271 276 278 278 283 291 295 296 295 296 303 309 314 320 326 323 323 322 323
226 226 226 226 227 230 235 240 244 248 249 250 249 247 249 251 253 254 251 251 255 259 261 266 269 272 275 278 281 284 287 286 290 291 297 302 307 313 314 313 316 317 319
227 228 229 232 235 236 238 241 247 248 254 255 251 248 249 249 249 253 255 253 256 257 261 262 264 266 271 275 278 279 282 283 285 286 291 297 301 303 305 309 312 313 316
229 229 232 233 235 239 242 245 248 253 255 254 252 248 249 251 250 252 255 255 255 256 259 262 266 269 271 273 275 279 279 281 285 290 291 292 297 297 303 305 305 305 306
227 226 229 234 236 238 242 246 251 255 254 248 247 249 248 251 255 255 257 258 259 260 261 262 266 271 272 275 276 275 275 277 280 281 284 289 290 293 294 294 294 295 300
227 227 229 231 237 239 243 247 250 254 255 252 246 245 247 251 254 256 256 258 260 262 263 263 264 268 269 270 271 272 274 276 278 281 283 285 286 286 288 289 291 293 292
231 225 232 231 234 241 241 247 251 251 257 251 248 246 245 246 249 253 255 257 259 261 263 265 266 265 268 267 269 271 271 275 278 279 278 278 279 282 286 286 286 289 290
229 224 228 226 232 240 239 245 252 254 259 251 247 246 247 248 248 250 252 255 255 258 263 264 263 263 265 267 269 270 273 275 276 278 276 277 279 281 280 281 284 285 286
225 227 232 231 234 236 240 241 253 248 256 251 253 244 244 247 249 250 251 252 252 252 257 260 262 263 264 264 266 269 270 270 271 274 275 276 275 278 280 282 283 285 287
226 228 232 232 233 239 242 242 236 249 254 249 253 253 252 248 249 250 251 251 250 249 250 255 256 257 260 263 263 267 269 269 269 270 273 276 279 275 277 278 279 281 286
240 234 232 239 238 239 238 245 241 241 249 251 250 253 251 256 252 252 250 251 250 251 251 251 252 254 257 260 264 265 267 270 269 272 273 274 273 274 275 274 275 278 284
236 245 239 234 250 245 241 239 249 260 246 245 247 248 255 251 252 253 252 251 251 250 252 251 251 253 254 255 269 267 266 265 267 269 269 268 269 271 272 270 273 279 285
251 266 241 233 254 250 251 248 251 254 255 250 252 239 248 249 241 247 249 247 244 245 244 247 246 249 253 260 261 261 265 266 265 264 265 269 271 270 269 271 275 280 285
241 251 255 264 260 250 252 257 247 248 249 250 245 248 255 243 249 238 243 246 245 240 237 242 238 236 242 250 253 256 257 259 267 266 270 268 267 267 268 270 276 281 285
236 242 247 250 249 252 246 252 259 266 249 267 282 260 261 246 248 250 235 239 242 240 242 233 235 237 241 248 252 256 258 263 265 266 267 267 266 268 267 270 275 282 286
244 247 248 251 254 250 252 251 263 270 272 274 287 287 272 260 250 251 250 246 248 247 249 246 234 232 243 248 251 253 254 259 264 265 266 267 266 266 268 273 278 281 283